QPF
0.00 0.00 0.00 0.01 0.00 0.00 0.00 0.00 0.00 0.04 0.05 0.06 0.06 0.06 0.11 0.08 0.04 0.03 0.02 0.01 0.00 0.00
0.00 0.00 0.00 0.00 0.00 0.00 0.00 0.00 0.00 0.01 0.02 0.03 0.05 0.08 0.07 0.08 0.07 0.04 0.01 0.01 0.01 0.00
0.00 0.00 0.00 0.00 0.00 0.00 0.00 0.00 0.00 0.00 0.00 0.00 0.01 0.03 0.04 0.05 0.05 0.04 0.02 0.00 0.00 0.00
0.00 0.00 0.00 0.00 0.00 0.00 0.00 0.00 0.00 0.00 0.00 0.00 0.00 0.01 0.01 0.01 0.01 0.01 0.00 0.00 0.00 0.01
0.00 0.00 0.00 0.00 0.00 0.00 0.00 0.00 0.00 0.00 0.00 0.00 0.00 0.00 0.00 0.00 0.00 0.01 0.01 0.01 0.01 0.02
0.00 0.00 0.00 0.00 0.00 0.00 0.00 0.00 0.00 0.00 0.00 0.00 0.00 0.00 0.00 0.00 0.00 0.01 0.01 0.02 0.04 0.04
0.00 0.00 0.01 0.01 0.01 0.01 0.01 0.00 0.00 0.00 0.00 0.00 0.00 0.00 0.00 0.01 0.02 0.03 0.04 0.06 0.10 0.10
0.00 0.00 0.01 0.02 0.03 0.02 0.00 0.00 0.00 0.00 0.00 0.00 0.00 0.00 0.01 0.01 0.03 0.04 0.07 0.10 0.11 0.10
0.00 0.00 0.01 0.02 0.03 0.03 0.01 0.01 0.01 0.00 0.00 0.01 0.01 0.03 0.02 0.02 0.03 0.03 0.04 0.05 0.06 0.06
0.01 0.01 0.01 0.00 0.01 0.02 0.02 0.01 0.04 0.11 0.06 0.02 0.04 0.05 0.04 0.04 0.05 0.07 0.07 0.06 0.06 0.05
0.01 0.00 0.01 0.02 0.01 0.00 0.02 0.03 0.01 0.05 0.17 0.06 0.07 0.09 0.08 0.06 0.04 0.04 0.04 0.05 0.03 0.02
0.04 0.09 0.15 0.10 0.03 0.04 0.04 0.08 0.11 0.11 0.09 0.12 0.11 0.05 0.03 0.04 0.05 0.06 0.05 0.03 0.01 0.00
0.02 0.07 0.10 0.08 0.10 0.14 0.14 0.13 0.09 0.13 0.14 0.09 0.05 0.03 0.03 0.03 0.03 0.01 0.00 0.00 0.00 0.00
0.05 0.07 0.11 0.10 0.13 0.12 0.09 0.09 0.06 0.03 0.02 0.01 0.01 0.00 0.00 0.00 0.00 0.00 0.00 0.00 0.00 0.00
MSLP
1010.21 1010.06 1009.65 1009.55 1009.50 1009.60 1009.87 1010.01 1010.30 1010.62 1010.88 1011.29 1012.08 1012.90 1013.88 1014.63 1015.08 1015.71 1016.49 1017.09 1017.82 1018.62
1009.95 1009.81 1009.54 1009.28 1009.31 1009.22 1009.23 1009.35 1009.74 1010.32 1010.85 1011.40 1011.93 1012.62 1013.48 1013.98 1014.79 1015.52 1016.22 1016.94 1017.75 1018.53
1010.06 1009.78 1009.50 1009.24 1008.97 1008.93 1009.05 1009.31 1009.66 1010.17 1010.71 1011.21 1011.79 1012.39 1013.16 1013.90 1014.63 1015.41 1016.20 1016.82 1017.68 1018.61
1010.12 1009.98 1009.65 1009.23 1009.09 1009.11 1009.22 1009.35 1009.62 1010.02 1010.55 1011.17 1011.75 1012.30 1012.99 1013.73 1014.40 1015.25 1016.11 1016.98 1017.74 1018.70
1010.22 1009.77 1009.49 1009.44 1009.18 1009.30 1009.47 1009.55 1009.67 1010.14 1010.61 1011.22 1011.85 1012.47 1013.14 1013.82 1014.83 1015.59 1016.51 1017.40 1017.98 1019.10
1010.67 1010.29 1009.56 1009.82 1009.96 1009.49 1009.87 1010.23 1010.41 1010.43 1010.99 1011.60 1012.22 1012.83 1013.61 1014.38 1015.28 1016.25 1017.14 1018.11 1018.99 1019.62
1011.38 1011.32 1010.98 1010.09 1010.63 1010.26 1010.06 1011.10 1011.32 1011.47 1011.90 1012.56 1013.11 1013.61 1014.21 1015.02 1015.89 1016.83 1017.80 1018.58 1019.34 1019.77
1012.43 1012.38 1012.05 1011.49 1011.71 1011.67 1011.61 1011.79 1012.35 1012.51 1013.09 1013.61 1014.09 1014.63 1015.16 1016.04 1016.85 1017.54 1018.58 1019.43 1019.75 1020.42
1013.44 1013.31 1013.24 1013.27 1013.07 1012.88 1012.84 1013.06 1013.32 1013.67 1014.14 1014.64 1015.05 1015.58 1016.07 1016.80 1017.44 1018.28 1019.10 1019.68 1020.43 1020.74
1014.48 1014.52 1014.46 1014.36 1014.29 1013.98 1014.09 1014.33 1014.47 1014.72 1015.13 1015.59 1015.98 1016.53 1017.12 1017.75 1018.48 1018.99 1019.81 1020.23 1020.73 1021.03
1015.32 1015.45 1015.51 1015.38 1015.35 1015.31 1015.25 1015.42 1015.64 1016.09 1016.16 1016.53 1017.36 1017.64 1018.10 1018.39 1019.02 1019.68 1020.15 1020.29 1020.67 1021.08
1016.28 1016.40 1016.51 1016.39 1016.45 1016.42 1016.28 1016.65 1017.13 1017.33 1017.65 1018.00 1018.47 1018.71 1019.01 1019.35 1019.58 1020.09 1020.54 1020.71 1020.76 1021.00
1017.07 1017.24 1017.30 1017.40 1017.46 1017.43 1017.35 1017.70 1018.12 1018.56 1018.63 1018.77 1018.99 1019.39 1019.54 1019.67 1020.12 1020.40 1020.57 1020.63 1020.72 1020.69
1017.96 1018.11 1018.20 1018.25 1018.31 1018.40 1018.65 1018.88 1019.19 1019.40 1019.61 1019.83 1019.53 1019.40 1019.73 1020.26 1020.44 1020.47 1020.55 1020.66 1020.68 1020.66
Thickness
5616 5617 5621 5622 5623 5624 5623 5624 5622 5621 5620 5619 5614 5610 5604 5599 5597 5593 5588 5583 5577 5571
5603 5603 5603 5605 5605 5608 5611 5613 5612 5610 5610 5607 5604 5600 5594 5593 5587 5581 5577 5571 5565 5560
5582 5582 5583 5585 5588 5591 5593 5593 5595 5596 5596 5595 5594 5590 5586 5583 5577 5571 5564 5561 5555 5548
5561 5560 5561 5563 5565 5567 5570 5574 5576 5578 5580 5580 5579 5579 5577 5572 5567 5562 5555 5548 5543 5536
5541 5539 5540 5539 5544 5545 5547 5552 5558 5559 5561 5563 5564 5562 5561 5559 5553 5548 5541 5534 5529 5520
5515 5515 5519 5515 5515 5525 5527 5530 5535 5541 5543 5544 5544 5544 5542 5539 5535 5529 5523 5516 5510 5503
5495 5495 5493 5496 5494 5504 5509 5506 5512 5519 5522 5522 5523 5524 5523 5520 5516 5511 5505 5500 5494 5485
5482 5477 5474 5476 5477 5481 5489 5492 5491 5498 5501 5504 5505 5505 5504 5501 5497 5494 5487 5481 5478 5471
5470 5467 5462 5459 5463 5467 5471 5476 5479 5482 5484 5487 5490 5490 5489 5486 5482 5477 5472 5467 5460 5456
5463 5457 5453 5452 5452 5457 5459 5460 5464 5469 5471 5472 5474 5474 5473 5470 5465 5462 5455 5451 5446 5441
5458 5451 5447 5446 5447 5447 5449 5450 5451 5453 5458 5458 5458 5458 5456 5455 5451 5447 5443 5440 5434 5429
5452 5446 5443 5442 5443 5442 5443 5442 5441 5442 5443 5443 5443 5444 5443 5440 5438 5434 5429 5425 5423 5416
5451 5445 5442 5440 5438 5438 5440 5437 5435 5434 5435 5436 5435 5433 5432 5430 5425 5422 5420 5416 5414 5411
5447 5442 5439 5437 5436 5434 5433 5431 5429 5427 5426 5425 5427 5428 5424 5419 5416 5415 5412 5408 5404 5399